COSMOS 2435 (GLONASS)

Satellite information

Favourite Embed

Satellite Type and Status

PAYLOADIN ORBIT

Key statistics

Satellite COSMOS 2435 (GLONASS) at a glance.

Uptime

6518

Days in orbit

Revolutions

≈ 2.1

Per day

Orbit

MEO

Medium Earth Orbit

Inclination

64.3

Latest

Satellite identification and parameters

Extended collection of information and parameters for COSMOS 2435 (GLONASS).

Object identification

Identified? True

Debris? False

Object name: COSMOS 2435 (GLONASS)

International designator: 2007-065B

Object number (NORAD): 32394

Object ID (CCSDS): 32394

Country: COMMONWEALTH OF INDEPENDENT STATES (CIS)

Current information (Y/N): Y

RCS size: LARGE

Orbital parameters

Period: 675.69 minutes

Inclination: 64.3183 deg

SMA: 25506.958 km

Apoapsis: 19192.85 km

Periapsis: 19064.796 km

RAAN: 199.8028 deg

Eccentricy: 0.00251018

Argument of periapsis: 359.1291 deg

Mean anomaly: 0.9357 deg

Mean motion: 2.13115365 rev/day

Mean motion (dot): 0.00000023 rev/day2

B* drag term: 0.0 1/REarth

Two-line elements (TLE)

Creation date: Oct. 27, 2025, 2:46 a.m.

Reference frame: TEME

Reference center: EARTH

Epoch: Oct. 26, 2025, 4:26 a.m. UTC

TLE line 0: 0 COSMOS 2435 (GLONASS)

TLE line 1: 1 32394U 07065B 25299.18526921 .00000023 00000-0 00000-0 0 9995

TLE line 2: 2 32394 64.3183 199.8028 0025102 359.1291 0.9357 2.13115365138750

Live tracking on map

Real-time ground track for satellite COSMOS 2435 (GLONASS).

In-orbit conjunctions

There are no conjunctions computed for COSMOS 2435 (GLONASS), at the moment. Check back to stay up to date, as we update our databases every day.

Go to all conjunctions

Associated space launch

GLONASS navigation satellites

COSMOS 2435 (GLONASS) was lifted into orbit during the mission ‘Proton-M | Uragan-M 12 to 14’, on board a Proton-M space rocket.

The launch took place on Dec. 25, 2007, 7:32 p.m. from 81/24 (81P).

For more information about the launch, click the button.

Launch to space Proton-M | Uragan-M 12 to 14
Proton-M | Uragan-M 12 to 14

Agency: N/A

Status: Launch Successful

Launch date: Dec. 25, 2007, 7:32 p.m. UTC

Rocket: Proton-M

Launch pad: 81/24 (81P)

Location: Baikonur Cosmodrome, Republic of Kazakhstan

...

Latest news about this satellite

There are no fresh news available about this satellite. Check back as we update our databases every day.


Newsletter sign-up

Weekly statistics, charts and insights to help you stay on top of the space industry.